Location: Cerroniocc
(13.7547°S, 72.0222°W)
Time: 19:42:55
(UTC+00:00)

CZ-2D R/B - Pass Details

Date: 05 July 2020
Orbit: 521 x 538 km, 97.4° (Epoch: 11 August)

Event Time Altitude Azimuth Distance (km) Brightness Sun altitude
Exits shadow 23:21:23 16° 126° (SE) 1,451 4.9 -11.7°
Maximum altitude 23:23:33 26° 81° (E) 1,092 4.3 -12.2°
Drops below altitude 10° 23:26:47 10° 24° (NNE) 1,781 5.9 -12.9°
Sets 23:29:07 0° 11° (N) 2,662 6.9 -13.5°
